Weather History for Crisp Cnty-Cordele AP, Cordel, GA

Change the Weather History Date:

Tuesday, January 28, 2014

  Actual Average (KABY) Record (KABY)
Temperature  
Mean Temperature 44 °F 50 °F  
Max Temperature 52 °F 61 °F 83 °F (2003)
Min Temperature 37 °F 38 °F 12 °F (1986)
Degree Days  
Heating Degree Days 20 15  
Month to date heating degree days 444  
Since 1 July heating degree days 1157  
Cooling Degree Days 0 0  
Month to date cooling degree days 0  
Year to date cooling degree days 0  
Moisture  
Dew Point 29 °F    
Average Humidity 63    
Maximum Humidity 93    
Minimum Humidity 33    
Precipitation  
Precipitation 0.00 in 0.19 in 0.47 in (2007)
Month to date precipitation 4.23  
Year to date precipitation 4.23  
Sea Level Pressure  
Sea Level Pressure 30.12 in    
Wind  
Wind Speed 7 mph (North)    
Max Wind Speed 10 mph    
Max Gust Speed -    
Visibility 8 miles    
Events      
T = Trace of Precipitation, MM = Missing Value Source: NWS Daily Summary

Daily Weather History Graph

Daily Weather History Graph

Search for Another Location

Airport:

Trip Planner

Search our weather history database for the weather conditions in past years. The results will help you decide how hot, cold, wet, or windy it might be!

Date:

Astronomy

Jan. 28, 2014 Rise Set
Actual Time 7:31 AM EST 6:05 PM EST
Civil Twilight 7:05 AM EST 6:31 PM EST
Nautical Twilight 6:35 AM EST 7:00 PM EST
Astronomical Twilight 6:06 AM EST 7:29 PM EST
Moon 5:09 AM EST (1/28) 3:56 PM EST (1/28)
Length of Visible Light 11h 26m
Length of Day
10h 34m
Waning Crescent, 7% of the Moon is Illuminated
Jan 28
Waning Crescent
Jan 30
New
Feb 6
First Quarter
Feb 14
Full
Feb 22
Last Quarter

Hourly Weather History & Observations

Time (EST) Temp. Windchill Dew Point Humidity Pressure Visibility Wind Dir Wind Speed Gust Speed Precip Events Conditions
12:15 AM 52.7 °F - 42.8 °F 69% 30.03 in 10.0 mi North 4.6 mph - N/A   Mostly Cloudy
12:35 AM 52.3 °F - 43.0 °F 70% 30.03 in 10.0 mi NNE 4.6 mph - N/A   Overcast
12:55 AM 52.0 °F - 39.4 °F 62% 30.04 in 10.0 mi NNE 10.4 mph - N/A   Overcast
1:15 AM 50.7 °F - 36.1 °F 57% 30.03 in 10.0 mi North 8.1 mph - N/A   Overcast
1:35 AM 50.0 °F - 35.2 °F 57% 30.05 in 10.0 mi North 5.8 mph - N/A   Overcast
1:55 AM 49.5 °F - 33.3 °F 54% 30.05 in 10.0 mi North 8.1 mph - N/A   Overcast
2:15 AM 48.7 °F - 32.5 °F 54% 30.05 in 10.0 mi North 8.1 mph - N/A   Overcast
2:35 AM 47.8 °F - 31.5 °F 53% 30.06 in 10.0 mi NNW 8.1 mph - N/A   Overcast
2:55 AM 46.9 °F - 25.7 °F 44% 30.06 in 10.0 mi North 9.2 mph - N/A   Overcast
3:15 AM 46.4 °F 43.5 °F 25.7 °F 44% 30.07 in 10.0 mi North 5.8 mph - N/A   Overcast
3:35 AM 46.2 °F 41.7 °F 28.2 °F 50% 30.06 in 10.0 mi North 9.2 mph - N/A   Overcast
3:55 AM 45.7 °F 41.5 °F 23.9 °F 42% 30.06 in 10.0 mi North 8.1 mph - N/A   Overcast
4:20 AM 45.5 °F 41.8 °F 21.4 °F 38% 30.07 in 10.0 mi North 6.9 mph - N/A   Overcast
4:35 AM 45.0 °F 40.6 °F 19.6 °F 36% 30.06 in 10.0 mi North 8.1 mph - N/A   Overcast
4:55 AM 44.8 °F 40.4 °F 19.9 °F 37% 30.06 in 10.0 mi North 8.1 mph - N/A   Overcast
5:15 AM 44.6 °F 42.2 °F 23.0 °F 43% 30.06 in 10.0 mi North 4.6 mph - N/A   Overcast
5:35 AM 44.2 °F 39.7 °F 18.9 °F 36% 30.06 in 10.0 mi NNE 8.1 mph - N/A   Overcast
5:55 AM 43.7 °F 38.6 °F 16.2 °F 33% 30.08 in 10.0 mi North 9.2 mph - N/A   Overcast
6:15 AM 43.0 °F 38.8 °F 16.3 °F 34% 30.09 in 10.0 mi North 6.9 mph - N/A   Overcast
6:35 AM 42.8 °F 38.6 °F 17.4 °F 36% 30.10 in 10.0 mi North 6.9 mph - N/A   Overcast
6:55 AM 42.8 °F 38.6 °F 17.8 °F 37% 30.11 in 10.0 mi North 6.9 mph - N/A   Overcast
7:15 AM 42.3 °F 38.6 °F 18.3 °F 38% 30.11 in 10.0 mi North 5.8 mph - N/A   Overcast
7:35 AM 42.3 °F 37.9 °F 19.6 °F 40% 30.12 in 10.0 mi North 6.9 mph - N/A   Overcast
7:55 AM 41.9 °F 37.5 °F 18.0 °F 38% 30.12 in 10.0 mi North 6.9 mph - N/A   Overcast
8:15 AM 41.9 °F 38.2 °F 19.4 °F 41% 30.12 in 10.0 mi North 5.8 mph - N/A   Overcast
8:35 AM 41.9 °F 36.3 °F 19.4 °F 41% 30.16 in 10.0 mi NNW 9.2 mph - N/A   Overcast
8:55 AM 41.9 °F 36.3 °F 18.7 °F 39% 30.17 in 10.0 mi North 9.2 mph - N/A   Overcast
9:15 AM 41.9 °F 36.9 °F 17.4 °F 37% 30.16 in 10.0 mi North 8.1 mph - N/A   Overcast
9:35 AM 41.9 °F 37.5 °F 18.1 °F 38% 30.14 in 10.0 mi NNE 6.9 mph - N/A   Overcast
9:55 AM 42.1 °F 37.1 °F 18.0 °F 38% 30.14 in 10.0 mi NNE 8.1 mph - N/A   Overcast
10:15 AM 42.4 °F 37.5 °F 17.4 °F 37% 30.16 in 10.0 mi NE 8.1 mph - N/A   Overcast
10:35 AM 42.6 °F 37.8 °F 18.3 °F 38% 30.16 in 10.0 mi North 8.1 mph - N/A   Overcast
10:55 AM 43.0 °F 38.8 °F 18.9 °F 38% 30.17 in 10.0 mi North 6.9 mph - N/A   Overcast
11:15 AM 43.7 °F 38.6 °F 20.1 °F 39% 30.16 in 10.0 mi NNE 9.2 mph - N/A   Overcast
11:35 AM 43.9 °F 40.5 °F 20.5 °F 39% 30.16 in 10.0 mi NNE 5.8 mph - N/A   Overcast
11:55 AM 44.1 °F 41.5 °F 20.5 °F 39% 30.17 in 10.0 mi NNE 4.6 mph - N/A   Overcast
12:15 PM 43.9 °F 40.5 °F 20.8 °F 40% 30.17 in 10.0 mi North 5.8 mph - N/A   Overcast
12:35 PM 44.1 °F 40.8 °F 22.8 °F 43% 30.16 in 10.0 mi North 5.8 mph - N/A   Overcast
12:55 PM 43.7 °F 40.3 °F 25.7 °F 49% 30.14 in 10.0 mi NNE 5.8 mph - N/A   Overcast
1:15 PM 43.2 °F 39.7 °F 26.1 °F 51% 30.14 in 10.0 mi North 5.8 mph - N/A   Overcast
1:35 PM 42.3 °F 39.4 °F 28.6 °F 58% 30.13 in 10.0 mi North 4.6 mph - N/A   Overcast
1:55 PM 42.3 °F 39.4 °F 30.9 °F 64% 30.12 in 10.0 mi North 4.6 mph - N/A   Overcast
2:15 PM 41.4 °F 36.8 °F 31.8 °F 69% 30.11 in 10.0 mi North 6.9 mph - N/A   Overcast
2:35 PM 40.1 °F 35.3 °F 32.0 °F 73% 30.12 in 7.0 mi North 6.9 mph - N/A   Overcast
2:55 PM 39.7 °F 34.9 °F 33.3 °F 78% 30.09 in 5.0 mi NNE 6.9 mph - N/A   Overcast
3:15 PM 39.7 °F 34.9 °F 34.0 °F 80% 30.10 in 5.0 mi North 6.9 mph - N/A   Overcast
3:35 PM 39.2 °F 33.6 °F 33.4 °F 80% 30.10 in 5.0 mi North 8.1 mph - N/A   Overcast
3:55 PM 39.0 °F 34.0 °F 34.5 °F 84% 30.11 in 4.0 mi North 6.9 mph - N/A   Overcast
4:15 PM 38.5 °F 33.4 °F 34.7 °F 86% 30.10 in 3.0 mi North 6.9 mph - N/A   Overcast
4:35 PM 38.3 °F 33.2 °F 35.1 °F 88% 30.10 in 3.0 mi NNE 6.9 mph - N/A   Overcast
4:55 PM 38.3 °F 34.8 °F 35.4 °F 89% 30.10 in 2.5 mi NNE 4.6 mph - N/A   Overcast
5:15 PM 38.1 °F 33.7 °F 35.2 °F 89% 30.12 in 4.0 mi North 5.8 mph - N/A   Overcast
5:35 PM 38.3 °F 33.2 °F 35.6 °F 90% 30.12 in 2.5 mi NNW 6.9 mph - N/A   Overcast
5:55 PM 38.1 °F 31.7 °F 35.6 °F 91% 30.12 in 4.0 mi North 9.2 mph - N/A   Overcast
6:15 PM 37.8 °F 32.5 °F 35.2 °F 91% 30.12 in 3.0 mi North 6.9 mph - N/A   Overcast
6:35 PM 37.8 °F 33.3 °F 35.6 °F 92% 30.11 in 4.0 mi North 5.8 mph - N/A   Overcast
6:55 PM 37.8 °F 33.3 °F 35.6 °F 92% 30.11 in 4.0 mi North 5.8 mph - N/A   Overcast
7:15 PM 37.9 °F 34.4 °F 35.8 °F 92% 30.12 in 4.0 mi North 4.6 mph - N/A   Overcast
7:35 PM 38.3 °F 35.9 °F 36.3 °F 93% 30.14 in 4.0 mi North 3.5 mph - N/A   Overcast
7:55 PM 38.5 °F 36.1 °F 36.7 °F 93% 30.14 in 4.0 mi NE 3.5 mph - N/A   Overcast
8:15 PM 38.7 °F 35.2 °F 36.9 °F 93% 30.13 in 3.0 mi NE 4.6 mph - N/A   Overcast
8:35 PM 38.7 °F 35.2 °F 36.5 °F 92% 30.15 in 5.0 mi North 4.6 mph - N/A   Overcast
8:55 PM 38.1 °F 33.7 °F 36.0 °F 92% 30.17 in 5.0 mi NNE 5.8 mph - N/A   Overcast
9:15 PM 37.4 °F 30.8 °F 34.9 °F 91% 30.17 in 5.0 mi NNE 9.2 mph - N/A   Overcast
9:35 PM 37.4 °F 32.8 °F 34.9 °F 91% 30.18 in 5.0 mi NNE 5.8 mph - N/A   Overcast
9:55 PM 37.4 °F 32.8 °F 35.1 °F 91% 30.18 in 3.0 mi North 5.8 mph - N/A   Overcast
10:15 PM 37.4 °F 33.8 °F 35.1 °F 91% 30.18 in 4.0 mi North 4.6 mph - N/A   Overcast
10:35 PM 37.4 °F 32.1 °F 35.2 °F 92% 30.20 in 3.0 mi North 6.9 mph - N/A   Overcast
10:55 PM 37.4 °F 34.9 °F 34.9 °F 91% 30.18 in 5.0 mi NNE 3.5 mph - N/A   Overcast
11:15 PM 37.4 °F 34.9 °F 35.1 °F 91% 30.18 in 7.0 mi North 3.5 mph - N/A   Overcast
11:35 PM 37.4 °F 32.8 °F 35.1 °F 91% 30.18 in 7.0 mi North 5.8 mph - N/A   Overcast
11:55 PM 37.4 °F 31.4 °F 35.1 °F 91% 30.20 in 3.0 mi North 8.1 mph - N/A   Overcast